Torna al catalogo

THORAD AGENA D DEB

AttivoLEO
NORAD 4988·DEBRIS·🇺🇸 United States

Lanciato Apr 8, 1970 da Vandenberg Space Force Base

Loading…

Prossimi Passaggi (prossime 24 ore)

TLE

AggiornatoSource: Space-Track

Epoca: Sep 14, 2026, 11:27 UTC

1 04988U 70025HJ  26257.47712197  .00000303  00000-0  41746-3 0  9994
2 04988 100.0330 255.1850 0017321  58.9577  93.3396 13.67198740796022

Traccia THORAD AGENA D DEB in tempo reale con AllMySat

Download on the App Store